Location: Caltech
(34.1382°N, 118.1253°W)
Time: 02:38:25
(UTC-07:00)

Lacrosse 5 - Visible Passes

Search period start: 22 June 2018 00:00
Search period end: 02 July 2018 00:00
Orbit: 716 x 723 km, 57.0° (Epoch: 20 June)

Date Brightness Start Highest point End Pass type
(mag) Time Alt. Az. Time Alt. Az. Time Alt. Az.
22 Jun 4.7 03:50:27 10° N 03:54:07 19° NE 03:57:45 10° E visible
22 Jun 4.0 21:40:16 10° W 21:44:37 28° NW 21:49:00 10° NNE visible
23 Jun 5.2 02:58:25 10° N 03:00:25 12° NNE 03:02:25 10° NE visible
23 Jun 2.5 04:39:19 10° NNW 04:44:19 60° NE 04:49:19 10° SE visible
23 Jun 2.9 20:46:20 10° WSW 20:51:15 51° NW 20:56:11 10° NNE visible
23 Jun 5.3 22:34:01 10° NW 22:35:17 11° NNW 22:36:33 10° NNW visible
24 Jun 3.7 03:46:26 10° NNW 03:50:59 32° NE 03:55:31 10° ESE visible
24 Jun 4.9 21:38:13 10° WNW 21:41:33 17° NW 21:44:53 10° N visible
25 Jun 4.5 02:53:50 10° N 02:57:28 19° NE 03:01:05 10° E visible
25 Jun 1.8 04:35:50 10° NW 04:40:52 71° SW 04:45:53 10° SSE visible
25 Jun 4.2 20:43:37 10° W 20:47:59 29° NW 20:52:22 10° NNE visible
26 Jun 5.0 02:01:49 10° N 02:03:46 12° NNE 02:05:43 10° NE visible
26 Jun 2.4 03:42:41 10° NNW 03:47:41 59° NE 03:52:40 10° SE visible
26 Jun 5.2 21:37:17 10° NW 21:38:38 11° NNW 21:39:59 10° NNW visible
27 Jun 3.6 02:49:49 10° NNW 02:54:21 32° NE 02:58:51 10° ESE visible
27 Jun 2.4 04:32:42 10° WNW 04:37:16 35° WSW 04:41:50 10° S visible
27 Jun 4.8 20:41:32 10° WNW 20:44:54 17° NW 20:48:16 10° N visible
28 Jun 4.4 01:57:13 10° N 02:00:49 19° NE 02:04:25 10° E visible
28 Jun 1.7 03:39:11 10° NW 03:44:14 72° SW 03:49:16 10° SSE visible
29 Jun 4.8 01:05:14 10° N 01:07:07 12° NNE 01:09:00 10° NE visible
29 Jun 2.3 02:46:03 10° NNW 02:51:03 58° NE 02:54:23 21° ESE visible
29 Jun 3.3 04:30:17 10° WNW 04:33:14 17° WSW 04:33:14 17° WSW visible
29 Jun 5.1 20:40:33 10° NW 20:42:00 11° NNW 20:43:25 10° NNW visible
30 Jun 3.5 01:53:11 10° NNW 01:57:42 32° NE 01:59:47 23° E visible
30 Jun 3.0 03:36:04 10° WNW 03:38:48 27° W 03:38:48 27° W visible
01 Jul 4.2 01:00:36 10° N 01:04:11 19° NE 01:06:37 14° ENE visible
01 Jul 2.8 02:42:33 10° NW 02:45:41 38° NW 02:45:41 38° NW visible
